Weather History for New Iberia, LA

Change the Weather History Date:

Sunday, July 22, 2012

  Actual Average Record
Temperature  
Mean Temperature 81 °F 83 °F  
Max Temperature 88 °F 92 °F 98 °F (1948)
Min Temperature 73 °F 74 °F 67 °F (1970)
Degree Days  
Heating Degree Days 0 0  
Month to date heating degree days 0 0  
Since 1 June heating degree days 0 0  
Since 1 July heating degree days 0 0  
Cooling Degree Days 16 18  
Month to date cooling degree days 389 385  
Year to date cooling degree days 1797 1426  
Since 1 June cooling degree days 884 856  
Growing Degree Days 30 (Base 50)    
Moisture  
Dew Point 74 °F    
Average Humidity 80    
Maximum Humidity 94    
Minimum Humidity 65    
Precipitation  
Precipitation 0.00 in 0.22 in 3.70 in (1983)
Month to date precipitation 4.56 4.71  
Year to date precipitation 29.63 33.84  
Sea Level Pressure  
Sea Level Pressure 30.06 in    
Wind  
Wind Speed 4 mph (SE)    
Max Wind Speed 10 mph    
Max Gust Speed -    
Visibility 10 miles    
Events      
T = Trace of Precipitation, MM = Missing Value Source: NWS Daily Summary

Daily Weather History Graph

Daily Weather History Graph

Search for Another Location

Airport:

Trip Planner

Search our weather history database for the weather conditions in past years. The results will help you decide how hot, cold, wet, or windy it might be!

Date:

Astronomy

Jul. 22, 2012 Rise Set
Actual Time 6:20 AM CDT 8:06 PM CDT
Civil Twilight 5:54 AM CDT 8:33 PM CDT
Nautical Twilight 5:22 AM CDT 9:05 PM CDT
Astronomical Twilight 4:48 AM CDT 9:38 PM CDT
Moon 9:45 AM CDT (7/22) 10:13 PM CDT (7/22)
Length of Visible Light 14h 38m
Length of Day
13h 46m
Waxing Crescent, 13% of the Moon is Illuminated
Jul 22
Waxing Crescent
Jul 26
First Quarter
Aug 1
Full
Aug 9
Last Quarter
Aug 17
New

Hourly Weather History & Observations

Time (CDT) Temp. Heat Index Dew Point Humidity Pressure Visibility Wind Dir Wind Speed Gust Speed Precip Events Conditions
12:53 AM 73.0 °F - 71.1 °F 93% 30.02 in 10.0 mi ESE 4.6 mph - N/A   Clear
1:53 AM 73.0 °F - 72.0 °F 96% 30.00 in 10.0 mi Calm Calm - N/A   Clear
2:53 AM 73.9 °F - 72.0 °F 93% 30.00 in 10.0 mi Calm Calm - N/A   Mostly Cloudy
3:53 AM 75.0 °F - 72.0 °F 90% 30.00 in 10.0 mi East 5.8 mph - N/A   Mostly Cloudy
4:30 AM 75.2 °F - 73.4 °F 94% 30.01 in 9.0 mi Calm Calm - N/A   Mostly Cloudy
4:51 AM 75.2 °F - 73.4 °F 94% 30.01 in 10.0 mi Calm Calm - N/A   Overcast
4:53 AM 75.9 °F - 73.9 °F 94% 30.01 in 10.0 mi Calm Calm - N/A   Overcast
5:53 AM 75.9 °F - 73.0 °F 91% 30.02 in 10.0 mi NE 3.5 mph - N/A   Clear
6:53 AM 75.9 °F - 73.9 °F 94% 30.04 in 7.0 mi East 3.5 mph - N/A   Clear
7:53 AM 79.0 °F - 75.9 °F 90% 30.05 in 10.0 mi ENE 3.5 mph - N/A   Clear
8:53 AM 80.1 °F 85.4 °F 75.9 °F 87% 30.07 in 10.0 mi ESE 4.6 mph - N/A   Partly Cloudy
9:36 AM 82.4 °F 89.5 °F 75.2 °F 79% 30.08 in 10.0 mi SSE 4.6 mph - N/A   Mostly Cloudy
9:45 AM 82.4 °F 89.5 °F 75.2 °F 79% 30.09 in 10.0 mi SE 5.8 mph - N/A   Mostly Cloudy
9:53 AM 82.0 °F 89.4 °F 75.9 °F 82% 30.09 in 10.0 mi SE 6.9 mph - N/A   Overcast
10:43 AM 84.2 °F 92.3 °F 75.2 °F 74% 30.09 in 10.0 mi SE 4.6 mph - N/A   Scattered Clouds
10:53 AM 82.9 °F 90.2 °F 75.0 °F 77% 30.09 in 10.0 mi South 3.5 mph - N/A   Scattered Clouds
11:53 AM 84.9 °F 93.3 °F 75.0 °F 72% 30.09 in 10.0 mi East 4.6 mph - N/A   Partly Cloudy
12:53 PM 86.0 °F 93.8 °F 73.9 °F 67% 30.08 in 10.0 mi SE 4.6 mph - N/A   Partly Cloudy
1:53 PM 86.0 °F 95.1 °F 75.0 °F 70% 30.06 in 10.0 mi SE 8.1 mph - N/A   Mostly Cloudy
2:53 PM 86.0 °F 95.1 °F 75.0 °F 70% 30.06 in 10.0 mi South 9.2 mph - N/A   Scattered Clouds
3:53 PM 86.0 °F 95.1 °F 75.0 °F 70% 30.06 in 10.0 mi SSW 10.4 mph - N/A   Scattered Clouds
4:53 PM 84.9 °F 92.1 °F 73.9 °F 69% 30.06 in 10.0 mi North - - N/A   Clear
5:53 PM 82.9 °F 89.4 °F 73.9 °F 74% 30.08 in 10.0 mi SW 9.2 mph - N/A   Clear
6:53 PM 81.0 °F 86.2 °F 73.9 °F 79% 30.07 in 10.0 mi SSW 3.5 mph - N/A   Clear
7:53 PM 80.1 °F 85.1 °F 75.0 °F 85% 30.07 in 10.0 mi Calm Calm - N/A   Clear
8:53 PM 78.1 °F - 73.9 °F 87% 30.07 in 10.0 mi SE 3.5 mph - N/A   Clear
9:53 PM 77.0 °F - 73.9 °F 90% 30.09 in 10.0 mi SSE 5.8 mph - N/A   Clear
10:53 PM 77.0 °F - 73.9 °F 90% 30.10 in 10.0 mi East 3.5 mph - N/A   Clear
11:53 PM 75.9 °F - 73.0 °F 91% 30.11 in 10.0 mi East 3.5 mph - N/A   Clear